Theta_e
282 281 281 283 281 280 282 285 286 286 285 284 284 284 284 284 279 275 274 275 274 275 275 274 275 274 274 274 274 274 274 277 276 274 275 277 278 291 294 296 297 298 299 299 299 299 300 300 299 299 298 298 297 296 296 296 296 295 295 295 295 294 292 292 291 291 291 291 292 292 292 293 293 293
281 281 280 280 280 280 281 284 285 286 286 284 284 284 283 285 283 279 278 277 275 275 275 275 273 274 273 274 274 274 273 278 275 273 274 276 279 287 291 292 293 294 294 296 297 298 298 298 298 298 297 297 295 295 295 295 294 294 293 293 292 291 290 289 289 290 290 290 290 290 291 291 292 292
281 280 280 279 279 279 280 281 282 284 285 284 283 282 282 283 283 282 280 276 276 276 274 273 274 273 272 273 273 273 273 275 274 272 273 275 280 281 285 289 289 290 291 292 293 295 296 297 297 297 296 295 294 294 294 293 293 292 292 290 289 288 288 288 289 289 289 289 289 289 290 290 291 291
280 280 280 279 279 278 278 279 280 281 283 283 282 281 282 281 282 283 280 279 275 275 275 273 272 272 272 273 272 272 273 274 275 271 272 274 276 274 275 286 286 287 287 288 289 291 292 293 294 295 294 293 292 292 292 291 291 290 288 287 287 287 287 288 288 288 288 288 288 288 289 289 290 290
279 280 280 279 278 278 278 279 279 279 280 281 281 280 280 281 281 281 280 277 272 272 273 273 271 271 272 271 271 270 270 270 272 272 271 271 271 272 273 277 284 284 285 285 286 287 288 289 289 290 289 289 289 289 288 288 287 286 285 285 285 285 286 286 286 286 286 286 286 287 287 287 288 289
279 279 279 278 278 278 278 278 278 279 279 280 280 279 280 280 280 280 277 276 273 271 271 271 271 270 271 270 271 270 269 269 270 270 270 271 271 271 271 273 279 283 283 283 284 285 285 284 285 285 285 285 285 284 284 283 283 283 283 284 284 284 284 284 284 284 285 285 285 285 286 286 287 287
279 279 279 278 277 278 278 278 278 278 278 279 280 280 279 280 280 279 278 277 274 270 270 271 269 270 271 270 270 270 270 270 270 269 269 270 271 272 271 272 275 281 281 282 283 283 283 283 283 283 282 282 281 281 281 281 281 282 282 282 283 283 283 283 283 283 283 283 283 284 284 284 285 286
279 279 279 278 277 278 278 277 277 277 277 278 279 278 278 279 279 278 277 278 275 272 270 270 269 270 269 270 270 271 270 269 269 269 269 270 270 270 271 271 272 277 279 279 280 281 281 281 281 281 281 280 280 280 280 280 280 281 281 281 281 282 282 282 282 282 282 282 282 282 282 282 283 284
279 279 280 279 278 278 278 277 277 276 276 277 277 277 276 277 278 278 277 276 275 273 271 270 270 270 269 270 270 270 268 269 268 269 268 269 269 269 270 270 272 275 276 276 276 277 278 279 279 280 279 279 279 278 278 278 279 279 280 280 280 280 281 280 280 281 281 281 281 281 281 281 281 282
280 280 280 279 278 278 279 278 277 276 276 276 276 276 276 276 277 276 275 275 275 274 272 269 268 268 268 268 269 270 269 268 267 267 268 268 269 268 268 269 270 270 270 269 270 272 273 275 277 278 278 277 277 277 277 277 277 278 279 279 279 279 280 280 280 280 280 280 280 280 280 280 281 281
279 279 279 279 278 278 279 279 277 276 276 276 276 276 275 276 276 275 275 275 274 273 271 269 268 267 268 268 267 269 269 269 268 267 267 266 268 268 268 268 269 269 269 272 273 272 271 272 272 275 276 275 275 275 275 276 276 277 278 278 279 279 279 279 279 279 279 279 279 280 280 280 280 280
279 279 279 279 278 278 279 279 278 277 276 276 276 275 275 275 275 275 274 274 273 272 270 269 268 268 267 267 268 269 268 267 268 268 268 267 267 267 268 268 267 269 268 268 268 269 268 269 270 271 272 273 273 273 272 274 275 276 277 278 278 278 278 279 279 279 279 279 279 279 279 280 280 280
278 278 278 278 278 279 280 281 280 279 279 276 276 275 275 275 275 274 274 274 272 271 270 268 268 267 267 267 266 266 265 266 266 268 268 268 268 268 267 268 269 269 268 268 267 267 267 266 267 267 266 269 268 269 271 271 274 275 277 277 277 277 277 278 278 278 278 278 278 279 279 279 279 279
277 277 277 278 280 281 281 281 281 281 281 280 278 276 275 275 275 274 273 273 272 271 269 268 267 266 266 266 266 266 266 267 268 267 267 267 267 266 267 267 267 269 268 267 265 266 267 265 267 267 266 267 267 267 267 269 273 275 276 276 276 277 277 277 277 277 278 278 278 278 278 278 279 279
277 277 276 276 279 280 281 281 281 281 281 281 280 279 279 278 276 275 273 273 272 271 269 269 268 267 266 266 267 266 267 267 267 266 267 267 267 265 265 264 266 268 267 267 265 265 267 266 265 267 266 266 266 267 267 271 273 274 275 275 275 276 276 276 276 277 277 277 277 277 277 278 278 278
277 276 276 276 277 278 278 278 279 281 281 281 281 280 280 280 280 279 276 274 272 272 270 269 268 268 267 267 267 267 267 266 267 267 267 267 266 266 266 266 264 267 267 265 265 264 266 265 265 265 266 266 266 266 268 271 273 274 274 275 275 275 275 275 276 276 276 276 276 276 277 277 277 278
277 277 276 275 276 277 280 279 278 278 279 281 281 280 280 280 280 279 279 279 275 274 271 270 269 269 269 267 268 268 268 269 266 267 266 267 267 267 267 267 264 265 267 265 265 263 265 264 264 263 265 265 265 265 267 270 272 273 273 274 274 274 274 274 275 275 275 275 275 276 276 277 277 277
277 277 276 276 276 276 278 277 277 277 277 277 277 277 276 276 278 279 279 277 276 276 273 271 270 271 270 268 269 269 270 268 267 267 266 268 266 266 265 267 266 266 267 264 265 262 264 263 263 263 264 265 264 265 267 270 271 272 272 273 273 273 273 274 274 274 274 274 275 275 276 276 276 276
278 277 277 277 276 276 277 277 277 276 276 276 275 274 274 274 275 275 275 274 274 273 272 271 271 270 270 270 269 270 270 269 269 269 268 268 267 267 266 265 266 265 267 265 265 262 265 264 262 263 264 263 263 264 266 268 270 271 271 272 272 273 273 273 273 273 274 274 274 274 275 275 275 275
277 277 277 276 276 276 275 278 279 278 276 275 274 273 273 274 274 273 275 275 275 272 271 270 270 270 270 271 270 270 269 269 269 269 268 268 266 265 264 263 266 263 266 265 264 262 262 265 262 262 263 263 262 264 264 266 269 270 270 271 272 272 272 272 272 272 273 273 273 274 274 274 274 274
276 276 276 276 275 275 275 279 280 280 277 274 273 272 272 272 271 271 273 275 275 275 274 274 275 275 275 275 274 274 273 271 270 267 265 264 266 263 261 262 264 262 265 263 264 263 261 264 261 260 262 262 261 262 263 263 266 268 269 270 270 270 270 271 271 272 272 272 272 273 273 273 273 273
276 276 277 276 275 274 275 280 281 280 276 272 272 271 271 270 270 270 271 272 273 275 275 275 275 276 275 275 275 275 274 273 271 266 263 266 265 262 264 259 263 262 264 263 265 260 260 262 261 260 259 260 260 261 261 263 263 265 264 266 268 268 269 270 270 270 270 270 271 271 272 272 273 269
274 275 276 277 276 275 276 281 281 281 276 272 272 271 271 270 269 270 270 270 271 271 271 272 272 272 274 273 272 272 274 273 271 268 267 268 264 262 263 262 261 258 261 264 265 258 259 260 259 259 254 255 258 259 258 259 260 261 261 262 262 266 268 268 268 268 269 269 270 271 271 271 271 267
273 274 275 276 278 278 279 281 281 281 278 273 272 272 271 270 269 271 270 271 270 270 270 270 271 268 266 267 269 270 270 268 267 268 267 267 266 263 263 262 261 258 260 263 264 259 258 261 255 262 258 256 253 258 258 258 260 260 261 260 260 263 264 264 264 266 267 268 269 270 270 270 270 266
273 273 274 275 278 279 280 281 281 281 280 276 272 272 270 271 272 272 269 270 271 269 269 268 266 265 265 265 265 265 265 265 266 266 267 266 266 264 262 261 260 260 261 264 265 260 253 258 254 258 255 257 255 255 257 259 258 259 259 259 258 259 260 259 260 259 263 265 266 267 268 268 269 268
273 273 273 274 277 279 280 281 281 281 280 278 272 272 275 276 276 271 270 270 269 267 266 264 263 263 263 262 262 262 263 263 264 265 265 265 265 265 264 262 260 259 259 264 266 260 255 254 256 254 254 253 250 255 252 254 256 257 258 258 258 258 259 258 258 258 258 258 258 260 263 268 269 269
273 274 274 274 277 279 280 280 281 281 281 278 273 275 276 276 276 272 269 268 267 265 264 263 262 262 261 261 261 261 261 262 263 263 264 264 264 263 264 264 264 262 262 261 262 261 258 252 257 256 253 255 252 252 253 252 251 257 254 255 256 257 258 257 256 256 257 257 257 263 266 266 267 267
274 274 273 274 277 279 280 280 281 281 281 277 276 276 277 276 275 269 268 267 265 264 263 262 261 260 261 261 261 260 261 261 262 262 263 262 263 262 261 261 260 261 261 261 261 260 259 255 254 257 257 254 252 251 251 254 254 254 253 255 255 254 256 257 256 256 256 256 256 256 256 255 257 258
274 275 276 277 278 279 280 280 280 280 280 280 276 277 276 274 271 267 266 266 265 263 262 262 262 260 261 261 261 262 261 262 261 261 260 259 258 258 258 257 257 257 258 259 259 259 259 257 255 256 255 253 252 250 253 250 252 251 253 252 251 254 255 254 255 254 255 256 255 256 255 256 255 257
277 277 277 277 278 278 278 278 277 277 277 279 276 276 274 272 268 267 266 265 264 263 263 262 261 261 261 260 261 261 261 260 259 258 257 256 255 255 254 255 254 254 254 256 257 258 258 257 256 255 254 252 253 251 252 251 250 252 252 252 252 254 254 254 254 254 255 254 255 255 255 256 256 256
275 276 276 276 277 277 277 277 277 277 277 276 273 273 273 270 268 267 266 265 264 263 263 262 261 261 260 260 259 259 258 257 258 258 256 256 255 253 252 253 252 253 253 254 255 256 256 256 256 256 252 251 251 252 252 252 250 250 250 252 251 249 250 251 249 251 252 253 253 254 254 254 254 256
274 274 275 275 275 275 275 276 275 275 274 272 272 272 271 268 267 266 267 266 264 264 263 261 260 258 258 257 257 257 257 257 257 257 255 255 253 253 251 250 251 252 252 252 251 252 254 255 255 254 254 251 249 249 250 249 249 249 250 251 251 252 252 251 252 252 253 252 251 251 252 253 253 254
272 272 273 272 272 272 272 272 273 272 270 270 271 269 267 265 265 265 264 263 263 262 260 259 257 256 257 256 256 255 255 255 255 256 253 255 253 252 253 251 252 251 251 252 251 250 249 249 251 252 252 252 253 251 249 248 249 251 250 250 251 251 251 252 252 252 251 250 250 251 251 253 254 254
271 271 270 271 270 270 271 270 271 270 269 267 265 264 265 264 263 263 263 263 262 261 260 259 257 257 256 255 255 254 254 254 254 254 254 252 253 251 251 250 251 251 251 251 251 250 249 248 247 248 248 249 250 251 251 250 249 250 251 251 251 250 251 252 251 252 251 250 250 249 250 252 253 255
269 269 269 269 270 269 270 269 270 269 267 265 264 263 263 263 263 262 262 262 261 260 259 259 258 257 256 254 254 253 254 253 252 252 253 251 250 251 251 250 250 250 250 249 249 249 248 247 247 246 247 246 246 248 254 252 249 250 250 249 250 249 250 251 250 249 250 249 250 250 250 251 252 254
269 269 269 268 269 269 269 269 269 268 266 265 264 263 261 261 262 262 261 261 260 259 259 258 257 257 256 255 255 254 253 253 251 251 250 250 249 250 250 250 250 250 250 249 249 249 247 246 246 246 246 246 245 246 249 259 256 248 248 247 249 249 249 249 250 250 250 250 251 251 249 249 251 253
268 269 269 268 269 268 268 268 268 267 265 264 263 263 261 261 261 262 261 261 259 259 259 258 257 256 256 255 254 254 253 252 250 251 249 250 250 250 249 249 249 249 248 249 249 247 247 245 246 245 244 243 245 246 248 249 259 259 251 249 250 252 250 249 250 250 251 252 250 251 250 250 250 251
267 268 268 268 268 268 268 268 267 265 264 264 263 262 261 261 261 260 260 259 259 258 258 257 256 256 255 255 254 253 253 253 252 251 250 250 249 248 249 249 248 248 248 247 247 246 247 246 246 246 246 244 244 245 246 248 246 249 260 253 250 251 250 248 249 250 250 251 251 251 251 250 250 252
268 268 267 267 267 267 267 267 265 264 264 263 262 261 261 260 259 259 259 258 258 257 257 256 256 255 255 254 254 253 252 251 251 251 251 250 250 249 249 248 247 247 246 245 245 245 245 245 246 245 246 245 245 245 246 246 248 246 251 258 254 251 251 251 250 250 250 250 250 252 252 253 255 260
267 268 267 267 266 267 266 266 264 264 263 262 262 261 260 259 259 258 258 257 257 257 257 256 256 255 254 254 254 253 253 252 251 251 251 250 250 250 249 248 248 247 246 245 245 245 245 245 246 246 246 247 247 248 247 248 248 249 249 252 258 256 253 252 251 251 250 251 252 250 250 251 250 251
265 266 266 266 265 266 265 265 264 263 262 262 261 261 261 260 259 258 258 258 257 257 256 256 255 255 254 254 253 253 252 251 251 251 250 250 249 249 248 249 247 247 246 245 245 245 245 247 248 250 248 246 246 245 245 245 245 247 248 248 254 258 259 259 255 253 252 252 252 250 249 249 249 250
265 265 266 265 264 264 264 264 263 263 262 262 261 261 260 260 259 259 259 258 257 257 256 256 255 254 254 254 253 252 252 251 250 250 249 249 248 248 248 248 247 246 246 245 246 246 245 244 247 247 246 244 243 244 243 245 244 246 247 248 246 253 257 258 259 259 255 253 252 250 250 251 252 250
264 265 265 264 263 263 263 263 263 263 262 262 261 261 260 260 259 259 258 257 257 256 256 255 255 254 254 253 252 252 252 251 250 250 249 249 248 247 247 247 247 247 247 246 244 243 242 242 241 242 242 242 244 245 244 245 245 245 246 246 247 247 248 254 256 258 259 260 260 257 254 253 250 248
262 262 262 262 262 262 262 262 262 262 262 262 261 260 260 259 258 258 257 257 256 255 255 255 254 253 253 252 252 251 251 251 251 249 249 248 248 247 247 246 246 245 245 244 242 242 241 241 242 243 241 243 243 243 244 244 244 245 245 245 246 246 246 245 247 252 255 257 258 258 260 260 260 258
260 261 261 261 261 261 261 261 261 261 261 260 259 259 258 258 258 258 257 256 256 255 255 254 253 253 252 251 250 249 250 251 250 249 249 248 247 247 247 246 245 244 244 243 242 240 240 239 239 240 241 242 242 243 245 245 245 245 245 245 244 245 245 246 245 245 246 246 251 256 258 260 260 260
Wind_Speed
4 4 6 6 6 6 5 6 7 8 8 9 11 12 13 10 10 8 7 7 6 6 4 3 0 2 2 3 4 4 4 6 7 5 6 6 7 9 14 12 11 11 11 11 10 10 10 10 11 11 11 12 11 11 10 11 11 11 11 11 11 11 10 10 10 10 11 10 10 10 10 10 10 10
5 4 4 4 6 5 6 8 8 9 10 10 10 9 6 8 11 9 10 8 6 5 5 2 3 2 2 3 4 3 4 8 6 5 6 7 6 12 11 11 11 10 9 9 9 10 10 10 11 11 11 11 10 10 10 10 10 9 9 10 10 10 9 9 9 9 9 9 9 9 10 10 10 10
6 7 7 5 5 5 6 6 6 6 7 9 8 7 5 6 5 11 7 6 5 5 8 3 2 5 3 3 4 4 4 5 6 5 6 6 11 13 6 12 10 10 10 8 8 9 9 9 10 10 10 10 10 9 9 9 9 9 9 10 9 9 9 9 10 10 10 9 10 9 10 10 10 10
6 7 7 6 6 4 4 5 5 6 5 6 7 7 6 5 5 8 7 7 7 4 4 5 5 5 6 4 6 5 4 5 8 5 5 6 9 6 6 11 11 10 9 9 9 8 9 8 9 10 10 9 9 9 9 9 9 10 10 10 10 10 10 11 11 11 11 11 11 11 11 12 12 11
6 7 7 6 4 4 6 6 6 6 6 6 6 5 6 6 6 7 6 7 7 3 2 6 6 5 6 4 4 5 4 4 4 5 4 4 5 5 4 3 12 12 11 10 10 11 10 10 10 10 10 10 10 10 10 10 10 10 10 10 10 10 11 11 11 11 11 12 12 12 12 13 13 13
6 6 7 7 6 5 6 6 7 7 7 7 7 7 7 7 7 4 5 5 7 8 4 5 5 6 4 4 4 5 6 5 3 4 2 2 3 4 4 4 5 12 11 11 11 11 12 12 12 11 11 11 11 11 10 10 10 10 9 10 10 10 11 11 11 11 12 12 13 13 14 14 14 14
8 8 8 8 7 5 6 6 6 5 7 6 8 8 6 7 6 5 4 7 5 10 7 6 7 5 5 3 5 4 4 5 4 4 3 2 3 3 4 4 2 10 10 11 11 11 11 11 11 12 12 11 11 10 11 11 10 10 10 10 11 11 11 11 12 12 13 13 14 15 15 16 16 16
10 11 10 9 9 7 7 7 6 5 5 7 7 7 5 5 6 5 4 4 7 7 10 8 6 6 5 3 5 5 5 5 4 4 4 3 3 2 3 3 4 7 10 10 10 9 9 9 9 10 10 10 10 11 11 11 11 12 11 11 11 10 10 10 11 11 12 12 13 13 14 15 15 16
11 10 12 10 10 9 9 7 7 7 8 6 6 7 6 6 5 4 4 5 7 11 12 10 5 4 3 3 6 6 7 6 4 4 4 4 4 3 2 2 4 7 10 10 11 10 9 9 9 8 9 9 10 11 11 11 11 11 10 10 9 8 8 8 8 8 9 9 9 10 10 11 11 12
9 10 10 10 11 11 12 11 9 8 9 7 7 7 7 6 6 6 5 6 7 9 11 10 9 6 6 7 6 7 6 8 7 6 5 4 3 4 4 3 3 2 3 2 4 7 8 9 9 8 8 9 10 10 10 10 10 10 9 8 8 7 7 7 7 7 7 7 8 8 9 10 10 11
8 9 8 9 11 12 11 11 12 11 9 8 9 8 8 7 8 8 7 7 8 9 12 4 3 7 5 6 8 7 5 4 5 7 7 4 4 3 5 5 4 3 2 6 9 7 6 6 5 6 7 8 9 8 8 8 8 8 8 7 7 7 7 6 6 7 7 8 8 9 10 11 11 11
8 8 8 8 10 11 10 9 9 10 10 7 8 7 7 8 8 8 7 7 8 9 11 8 10 6 8 6 3 5 6 5 4 6 5 8 8 6 5 4 5 5 4 4 3 4 4 4 5 6 6 7 7 7 6 6 7 7 8 7 7 6 6 7 7 7 8 9 10 11 12 12 13 13
8 8 8 8 8 8 8 8 8 9 8 9 10 7 8 8 8 7 7 8 8 9 10 6 4 7 7 7 9 10 10 10 8 8 5 4 5 5 5 4 4 3 4 4 4 3 3 2 3 2 1 2 5 4 5 4 6 7 7 7 7 7 7 7 8 8 9 10 11 12 13 13 14 14
9 9 8 8 11 12 12 12 13 14 12 10 7 10 11 11 9 9 10 9 10 12 15 10 11 9 8 9 10 8 7 5 6 7 7 7 7 6 5 4 3 3 4 4 3 3 3 2 2 4 1 2 3 1 1 2 3 5 7 7 7 7 7 7 8 8 9 10 11 12 12 13 14 15
11 9 8 7 9 10 11 10 14 15 15 14 12 12 12 11 13 13 11 10 12 15 17 9 6 8 7 8 7 7 8 7 7 8 7 7 8 8 9 6 5 4 5 5 5 3 5 4 3 4 3 3 2 1 2 3 3 4 5 5 5 6 7 7 8 9 10 11 11 12 13 14 15 16
10 10 8 8 7 8 10 9 10 13 15 15 13 15 16 15 13 9 11 14 11 12 12 9 8 12 12 10 10 9 9 9 8 8 7 8 8 9 7 7 6 6 7 5 4 4 5 3 3 4 4 4 2 2 3 4 4 4 4 5 5 5 6 6 8 9 10 11 11 12 13 14 15 16
10 9 9 9 8 7 14 11 9 9 10 13 15 15 15 13 13 11 9 6 5 13 14 12 12 11 9 10 10 9 9 9 8 8 7 7 6 5 4 5 7 7 7 5 5 4 5 5 3 4 4 5 3 3 4 5 5 5 5 5 5 6 6 6 8 10 10 11 12 13 14 15 16 17
11 12 11 11 10 9 10 9 10 10 9 9 9 8 7 6 8 10 9 7 6 7 8 7 10 8 7 7 9 9 12 11 11 10 9 8 7 6 5 5 7 5 5 4 4 3 5 5 4 3 4 4 3 3 5 6 6 6 6 5 5 5 6 7 9 11 11 12 13 14 15 16 17 18
12 12 11 12 11 11 11 10 12 11 11 8 7 6 6 5 5 4 4 5 4 4 5 3 5 6 7 8 10 10 9 8 6 6 8 8 7 8 7 6 6 3 4 4 4 3 5 5 3 2 3 1 2 3 3 6 7 7 6 5 5 6 8 10 11 12 12 13 14 15 16 17 19 20
10 11 11 10 13 11 11 13 18 13 8 8 8 8 7 7 5 4 4 7 7 6 5 5 6 6 8 11 10 10 9 8 8 9 8 8 7 7 6 5 6 3 3 5 2 2 2 2 2 2 1 1 2 3 2 6 9 8 7 7 7 9 11 12 13 13 14 14 15 16 17 18 20 21
10 10 11 12 11 9 8 16 20 19 14 8 9 9 8 6 6 6 5 9 11 12 13 14 15 16 17 17 17 17 17 11 11 8 8 7 8 6 6 3 4 4 4 1 4 1 2 2 2 1 1 1 3 4 3 3 7 8 8 8 9 12 13 13 13 14 14 15 16 17 18 19 20 23
8 9 11 8 11 8 10 19 21 21 14 8 8 9 9 9 8 7 7 5 8 13 15 16 17 17 17 18 19 18 18 17 12 8 11 8 7 5 6 7 3 1 2 2 5 4 3 2 1 1 4 3 2 1 3 3 5 8 7 9 12 13 14 13 13 13 14 15 16 17 19 19 20 13
8 6 11 12 11 9 14 22 21 22 16 13 10 11 8 9 9 8 8 9 10 9 10 10 11 11 14 11 10 11 17 16 11 6 5 6 7 9 5 5 4 2 3 5 7 5 4 4 4 4 4 4 3 3 2 3 3 2 3 4 6 12 13 12 12 13 14 15 16 17 18 19 18 11
5 5 7 13 19 19 22 22 23 23 21 16 14 15 14 9 9 9 7 7 7 9 8 8 9 8 6 7 6 6 7 6 6 6 4 3 5 6 5 6 6 5 3 3 7 5 2 2 2 2 4 1 4 1 1 2 2 2 3 4 4 9 11 10 9 13 14 15 17 17 18 19 18 10
9 7 7 7 18 22 24 25 25 24 24 19 13 17 16 15 13 13 8 11 12 7 9 8 8 8 7 6 4 5 4 4 4 5 4 3 3 5 6 6 5 3 2 5 9 6 4 1 3 1 0 1 3 2 4 1 4 3 4 3 4 5 4 5 4 5 11 16 17 19 19 19 19 16
11 6 7 10 18 24 24 25 26 27 24 24 12 14 17 16 20 12 8 9 9 8 8 8 8 7 8 7 4 4 4 4 5 4 4 4 3 3 4 6 7 6 5 5 12 6 6 1 6 4 2 2 5 1 3 4 1 5 4 3 3 3 4 4 5 5 6 6 7 11 14 21 22 23
14 11 10 9 19 25 26 26 27 25 26 21 13 21 20 19 21 15 9 9 9 8 8 9 9 9 9 9 6 5 5 5 5 4 4 4 4 4 3 3 3 4 3 5 5 5 3 3 0 6 5 1 1 2 3 4 4 1 1 3 2 4 3 4 4 6 5 7 8 18 20 20 21 23
12 12 13 13 22 24 25 27 26 26 24 14 21 24 24 23 20 11 10 9 10 10 9 9 9 11 8 6 5 6 5 6 6 5 5 4 4 5 4 5 6 5 5 4 4 4 4 5 1 1 4 4 4 5 6 3 3 3 4 3 3 3 3 3 5 7 7 7 8 9 7 7 8 10
10 14 21 21 23 25 26 27 27 23 24 23 23 26 26 22 10 10 10 11 10 10 11 11 10 8 7 6 6 6 6 6 6 5 5 6 6 6 7 6 4 4 3 2 3 2 3 4 5 3 2 4 6 5 4 7 3 2 2 3 5 4 5 5 6 7 8 8 9 9 9 8 9 9
16 20 21 24 24 24 21 16 13 10 12 19 24 26 23 13 10 12 11 10 11 11 10 9 9 8 7 5 5 7 6 6 5 6 5 6 5 5 5 4 1 2 1 1 1 2 2 3 4 4 5 4 5 7 7 6 8 4 4 6 7 6 7 8 8 9 7 8 9 9 9 8 10 10
10 15 16 15 19 14 18 16 12 10 11 9 15 13 13 11 11 11 11 12 11 8 8 7 7 9 6 6 7 6 7 7 5 6 8 6 6 5 3 5 5 2 2 1 1 2 2 3 4 5 5 4 4 7 6 5 8 6 4 6 4 9 4 2 4 8 8 9 9 9 9 10 10 11
10 10 10 13 11 10 10 10 8 7 6 9 11 11 10 10 10 11 12 8 7 7 7 7 8 10 8 10 7 7 7 6 7 7 9 8 7 6 7 4 5 4 3 2 1 2 1 2 2 2 2 5 5 4 2 4 7 7 7 7 7 9 8 8 9 10 9 7 8 9 10 10 11 11
6 6 7 8 8 9 9 9 8 7 6 8 9 9 7 9 9 10 10 11 10 9 9 11 14 13 9 10 7 11 10 7 8 5 10 5 11 5 5 8 6 4 5 4 3 2 0 1 1 0 2 3 4 3 3 7 8 7 9 10 7 8 8 8 8 10 4 4 8 10 11 11 11 12
9 10 10 10 10 10 9 10 9 7 7 8 6 6 7 9 9 10 10 9 9 9 10 10 13 11 10 12 10 11 11 7 7 7 9 7 6 6 6 6 6 4 3 4 3 3 0 1 1 3 2 3 6 7 8 9 11 9 9 8 8 9 9 7 7 7 6 6 8 10 11 14 13 12
8 8 8 8 9 9 9 9 10 7 7 8 8 7 7 7 9 9 9 9 9 9 9 8 8 8 9 11 9 14 9 10 8 7 3 7 5 6 6 6 5 5 5 5 4 3 4 2 1 1 3 2 4 7 16 16 10 12 7 7 8 8 9 7 5 6 6 6 5 9 12 14 16 14
9 9 10 10 9 9 9 9 8 7 7 7 8 8 8 8 8 9 10 9 10 10 9 9 8 8 8 8 8 10 10 7 10 8 8 7 10 6 4 6 5 5 5 6 5 3 3 2 1 0 3 5 4 8 6 21 24 10 8 5 5 5 7 6 6 5 6 7 6 8 11 15 17 16
9 8 8 9 8 9 9 9 8 8 7 8 7 8 10 10 8 7 6 9 9 9 10 9 9 8 8 7 7 7 7 8 11 7 9 7 7 7 6 6 6 6 5 5 4 4 2 2 1 3 2 4 6 9 11 0 18 20 9 7 9 6 6 4 6 9 7 8 9 9 12 12 15 16
8 9 8 8 8 8 8 8 7 6 6 7 7 7 6 5 6 7 7 9 9 8 8 8 8 8 8 7 8 7 7 6 7 7 6 6 8 8 7 7 6 6 6 4 4 4 4 4 4 5 5 7 7 8 10 3 3 5 13 5 5 6 3 3 6 10 12 9 10 11 11 13 15 15
9 10 9 9 8 8 8 8 7 8 8 7 8 8 8 7 7 7 8 8 8 8 8 7 8 8 9 8 8 9 8 8 7 7 7 7 8 8 7 6 6 4 5 4 3 4 3 6 7 6 8 7 8 6 4 7 12 4 6 11 8 8 9 5 8 11 12 12 11 11 12 15 19 32
4 5 7 8 8 7 7 6 6 7 8 8 8 8 9 9 9 9 8 8 8 7 7 8 8 8 7 8 8 6 6 9 9 7 8 7 7 7 6 6 6 5 5 5 5 5 6 8 8 8 8 8 7 7 6 8 12 12 9 11 20 16 12 7 9 11 14 12 8 9 15 15 14 12
4 5 4 5 6 6 7 7 7 7 8 7 8 8 8 8 9 9 9 9 8 8 8 7 8 9 8 8 8 9 9 7 6 6 6 6 6 7 6 6 5 5 6 6 6 7 9 10 8 10 7 6 4 3 5 8 12 13 8 5 7 14 18 15 10 10 11 11 9 11 14 15 15 14
5 5 5 5 6 6 7 7 7 7 7 8 8 9 8 9 8 11 10 10 9 8 8 8 8 8 8 8 8 7 8 8 8 7 7 7 6 6 7 6 7 6 7 8 8 8 6 3 6 4 4 4 3 5 9 10 12 13 12 8 5 10 16 19 22 22 16 12 10 11 13 14 11 13
4 5 5 4 5 5 5 6 7 7 8 8 8 9 9 8 8 10 8 9 9 8 8 8 8 8 8 8 8 8 8 8 7 8 7 7 7 8 7 7 7 7 7 6 3 4 3 1 2 4 4 4 6 6 10 10 9 10 12 13 12 7 7 13 18 22 24 27 24 19 14 14 15 18
3 4 4 4 5 6 5 6 7 7 8 8 8 9 9 10 10 10 10 10 10 10 9 9 8 8 8 8 8 7 7 8 7 8 8 8 8 7 7 7 6 5 6 5 4 2 2 3 5 6 5 6 5 5 10 9 10 10 10 12 12 10 13 6 6 14 19 23 25 25 31 32 30 30
3 4 4 4 5 6 7 7 7 7 7 8 8 9 9 9 10 9 9 9 9 9 9 9 9 8 8 8 9 9 7 6 6 7 7 7 7 7 6 6 6 6 6 5 4 3 4 5 4 3 4 5 4 6 9 8 10 11 11 11 14 13 11 9 11 12 11 10 13 22 28 30 30 32
Wind_Direction
160 158 176 179 170 181 177 174 173 168 164 170 172 172 165 163 140 167 194 214 178 212 191 161 43 48 38 63 44 58 48 50 44 28 33 20 356 56 71 83 83 81 97 98 106 109 107 111 108 103 93 88 87 87 89 85 78 76 74 72 68 66 64 61 61 59 55 51 48 46 43 41 37 32
164 165 171 170 177 182 179 184 179 176 173 175 184 188 183 159 157 160 176 200 182 161 184 167 156 165 126 105 77 61 59 62 48 40 30 21 19 24 93 97 93 89 98 114 123 119 118 114 116 109 101 98 94 93 94 90 89 88 84 76 71 70 69 65 61 58 53 51 46 42 40 37 33 30
168 172 181 188 188 180 187 181 184 184 176 182 180 187 167 187 153 156 146 139 224 159 176 163 140 144 154 131 111 88 68 62 57 42 32 26 34 29 57 100 100 97 93 97 110 118 112 115 112 106 98 95 93 93 92 88 81 79 75 68 62 59 55 52 49 45 43 40 36 33 30 26 23 21
179 175 182 188 183 178 174 179 182 184 187 172 178 178 175 168 160 152 150 148 168 172 155 136 139 142 138 136 115 101 69 77 72 33 45 36 42 39 16 103 103 110 109 102 99 100 106 107 103 90 88 91 90 89 86 84 81 76 71 64 56 50 46 43 39 36 34 31 28 25 22 19 15 12
181 184 181 183 184 169 176 180 173 177 177 170 177 171 168 168 168 157 136 124 117 40 93 138 148 151 141 121 134 115 105 91 89 81 48 44 59 36 39 66 115 113 116 117 117 113 108 107 106 102 98 94 92 90 89 87 85 81 75 68 59 52 47 41 36 33 29 26 23 19 16 12 9 7
190 181 180 183 179 186 180 172 184 176 173 178 171 188 180 177 179 178 110 121 139 146 147 138 137 157 182 102 151 142 135 126 118 95 67 54 49 41 29 39 99 121 119 124 126 123 118 116 114 109 104 102 98 97 96 95 90 82 74 66 57 52 46 39 34 29 25 21 18 14 12 9 6 4
180 182 188 185 176 176 177 187 185 175 182 179 184 185 184 180 181 180 137 133 126 145 156 159 156 168 170 133 154 144 123 124 120 112 99 62 68 50 29 35 20 119 114 116 120 123 121 118 120 118 112 105 106 103 94 92 89 78 68 60 54 49 43 36 30 26 22 17 14 12 9 7 3 359
186 188 182 188 178 176 181 183 180 186 177 184 185 180 189 180 179 173 157 149 126 154 137 182 169 157 145 128 136 136 125 125 127 121 107 83 73 56 42 35 13 105 104 97 97 103 106 105 110 114 108 97 90 84 81 76 68 61 57 53 50 46 40 34 29 24 20 15 11 9 6 2 359 356
190 189 194 179 176 177 182 183 188 182 185 179 175 181 174 176 165 156 157 134 136 149 154 130 153 130 113 118 145 151 145 139 123 127 127 130 122 104 79 39 68 72 70 69 64 68 76 74 81 87 88 74 72 70 70 68 63 60 57 56 51 48 46 42 34 27 20 14 9 5 1 358 354 351
196 196 194 182 181 182 186 189 183 180 184 173 177 172 171 166 154 155 143 140 146 150 156 146 141 173 160 153 172 169 160 150 147 139 136 121 136 137 132 124 109 120 115 96 60 48 41 48 57 69 74 63 60 61 63 61 57 53 52 52 52 49 47 43 38 29 20 13 5 358 355 352 349 347
201 202 198 188 188 193 195 185 185 179 179 181 183 177 169 164 162 160 159 153 149 151 137 89 106 136 157 154 159 169 156 157 153 152 146 150 150 159 153 146 141 127 99 96 96 90 80 78 69 70 77 68 59 57 56 51 47 44 42 41 41 40 38 34 31 24 15 8 2 357 351 349 348 345
204 205 203 198 198 201 199 190 183 177 180 175 178 178 164 166 162 163 156 154 153 149 130 148 155 162 147 156 107 122 147 158 185 191 169 162 165 170 151 163 149 150 128 129 118 96 74 72 74 65 63 68 58 54 43 31 33 31 29 30 29 30 26 25 21 16 13 6 359 355 350 348 346 346
205 206 206 204 202 203 200 192 182 189 180 171 176 180 171 170 168 160 162 163 154 161 149 123 112 142 161 172 157 168 185 194 178 164 156 149 138 137 131 145 137 155 140 152 129 135 113 106 127 119 105 88 61 29 41 10 15 10 15 17 20 18 16 14 14 12 9 3 359 356 352 348 346 343
205 206 203 202 196 195 191 187 186 187 189 194 191 174 176 174 172 171 170 172 176 167 159 171 160 167 184 177 183 174 172 138 117 141 160 151 143 134 140 134 155 170 160 158 147 152 129 119 161 139 135 132 79 29 350 300 4 354 2 8 13 11 10 10 10 10 6 2 358 353 349 347 343 340
202 203 199 197 194 190 189 188 187 188 189 190 190 187 191 187 175 171 178 188 177 173 174 153 162 179 155 174 164 167 153 155 158 159 163 153 151 165 161 169 151 173 178 181 146 182 153 143 173 162 162 162 147 174 240 319 342 346 353 3 6 7 5 5 4 2 2 358 356 351 348 345 342 339
199 196 191 193 192 193 192 185 185 188 189 188 187 185 191 197 203 207 186 173 177 184 172 172 189 174 186 164 167 168 156 162 154 166 161 168 165 170 180 165 163 166 144 187 155 177 153 140 184 164 184 158 185 210 263 294 317 334 345 350 358 1 3 4 2 0 358 355 351 348 344 341 339 336
197 190 190 192 194 193 186 182 181 177 181 185 183 183 188 194 197 199 210 220 209 177 175 173 178 189 159 159 179 167 154 151 141 153 155 173 169 175 152 149 126 149 149 154 183 168 182 133 204 161 200 155 204 220 246 277 314 326 340 346 348 353 357 356 355 354 352 351 347 344 341 338 336 333
199 194 193 191 192 187 184 183 176 172 173 168 169 172 175 178 190 192 187 163 155 183 177 158 175 160 148 161 150 147 154 157 164 162 166 161 154 161 151 125 131 137 154 164 163 159 179 145 173 184 180 152 204 221 253 293 316 329 333 339 338 341 347 351 351 349 348 346 343 342 339 336 333 331
202 198 198 198 182 181 184 184 176 173 171 158 156 142 145 144 154 129 136 135 139 117 138 103 91 112 124 126 133 143 152 153 151 147 147 143 138 123 111 106 150 158 184 168 213 177 142 173 162 225 158 203 222 245 265 295 319 326 329 330 337 341 350 351 349 347 344 342 341 339 338 335 333 331
205 202 198 182 169 164 162 176 174 166 137 142 147 144 144 144 128 106 114 114 106 104 93 102 112 111 124 132 137 144 138 130 121 115 111 119 135 139 154 158 170 153 154 136 156 163 202 196 118 241 78 288 284 284 279 313 330 333 333 339 351 355 350 345 344 344 342 341 340 339 336 334 331 329
201 197 190 176 174 169 160 176 177 173 157 142 150 148 145 135 122 130 124 130 129 126 124 126 131 136 143 147 149 150 148 144 144 134 128 155 152 145 154 174 165 198 151 223 141 178 302 276 107 281 291 24 308 305 317 341 344 344 350 353 355 351 347 342 341 341 341 339 338 334 334 331 329 328
198 189 175 162 152 152 165 179 179 176 160 145 146 145 145 146 150 147 141 130 138 138 138 139 142 146 148 150 153 155 159 157 155 154 162 165 142 161 165 163 154 166 124 201 142 110 238 94 22 55 304 16 277 335 328 344 349 350 349 345 346 344 340 341 337 336 335 335 332 329 327 329 327 331
148 157 179 170 167 159 171 181 183 180 168 153 160 160 150 159 159 165 149 150 148 148 143 148 143 148 150 149 149 158 159 160 159 156 144 155 150 160 155 140 120 65 268 177 151 109 266 93 293 100 10 342 294 68 348 342 324 329 333 343 343 330 335 336 333 328 331 329 326 322 323 321 323 320
164 153 171 183 183 177 181 185 186 187 180 178 168 153 165 157 165 155 149 154 137 145 144 145 142 129 107 117 121 128 129 106 84 126 143 141 146 157 156 138 163 157 169 130 146 130 256 82 226 43 144 147 288 270 78 291 289 309 327 343 352 326 332 336 332 327 322 322 318 317 313 312 311 308
167 169 169 162 186 184 187 190 192 195 194 185 176 177 175 165 158 148 138 157 149 136 140 127 130 136 133 121 104 107 106 104 111 112 129 106 124 151 164 161 175 145 133 144 137 127 172 133 161 135 30 185 243 326 290 351 319 324 318 324 308 312 319 316 322 321 318 315 315 311 308 304 301 294
173 161 165 164 186 189 193 196 200 203 199 193 173 185 183 171 165 156 147 146 145 136 138 139 142 145 145 125 119 119 112 113 115 115 124 148 138 152 174 166 165 168 187 171 152 141 125 253 172 133 187 116 302 256 299 301 285 268 292 305 293 289 304 302 308 310 299 295 300 294 289 292 291 295
165 157 151 168 185 195 201 202 203 203 199 194 179 182 182 179 171 154 156 147 146 148 151 154 158 155 147 141 140 130 135 135 133 137 136 133 137 106 112 146 188 165 137 100 120 140 113 146 138 153 200 205 196 291 240 255 281 237 90 274 238 264 249 268 281 279 282 280 274 281 286 286 290 289
191 164 165 184 190 195 201 204 205 206 204 188 181 184 187 183 172 150 154 153 160 159 159 163 167 168 160 138 143 144 139 139 139 133 129 113 103 97 80 68 52 62 81 92 107 121 132 142 210 186 165 184 213 238 256 255 221 233 259 275 259 244 247 253 256 260 261 264 264 269 265 269 266 277
185 186 187 189 193 199 203 204 206 208 209 195 176 187 183 180 154 154 160 168 163 168 178 179 177 165 162 139 126 127 120 117 110 100 80 67 59 61 64 62 58 44 61 55 101 124 141 159 182 203 175 185 191 231 224 254 253 231 252 306 285 245 239 239 249 251 256 255 260 259 259 262 266 260
182 186 189 193 197 202 204 204 204 206 206 203 179 185 181 170 160 165 171 175 174 183 180 171 169 164 140 112 115 111 120 120 123 122 112 109 89 104 108 100 24 60 28 47 74 173 173 186 182 192 195 214 200 221 231 249 264 241 204 233 257 288 259 242 249 254 247 248 253 261 260 255 259 260
177 189 191 197 199 198 200 199 199 202 204 191 175 181 179 171 167 173 175 178 176 170 160 156 143 143 119 107 115 135 135 132 134 130 135 131 136 117 118 141 206 255 236 171 218 214 198 206 201 201 188 217 209 220 228 240 262 265 235 234 217 246 243 175 215 243 247 255 254 258 261 259 257 250
182 186 190 192 196 194 200 203 197 195 178 168 175 180 179 165 164 168 165 150 152 157 151 131 129 106 137 133 142 137 139 138 126 135 129 149 143 139 126 129 212 204 231 212 274 285 240 242 205 238 203 185 216 252 239 216 245 251 260 238 234 249 255 247 250 253 247 245 260 260 255 254 258 258
165 160 180 181 186 189 191 198 198 184 162 173 177 169 148 150 153 158 159 167 168 156 140 150 148 142 145 141 140 130 127 138 132 144 110 160 130 149 166 179 188 163 194 197 168 247 341 355 322 207 251 259 241 214 216 265 256 239 245 254 239 239 245 241 236 255 246 239 253 265 276 266 261 264
172 182 181 187 186 188 188 194 198 185 170 166 146 153 156 154 160 165 169 167 160 153 154 150 146 154 147 135 149 124 127 127 123 149 155 142 152 159 186 185 213 197 195 226 199 179 162 339 342 343 317 256 249 229 217 226 251 249 238 252 246 257 254 247 244 251 242 223 256 279 283 284 276 265
178 183 181 187 188 190 192 193 198 181 176 171 162 159 162 170 166 167 167 167 153 152 148 148 150 153 151 143 146 142 160 148 129 109 127 103 132 176 187 193 205 194 198 207 226 197 148 173 149 335 290 300 293 266 218 211 232 248 260 236 246 243 265 260 242 250 244 243 225 262 279 282 281 278
188 187 186 189 188 188 191 196 191 182 173 174 173 164 161 174 176 174 175 166 154 151 148 149 155 157 162 165 167 154 136 156 135 145 135 157 155 182 184 202 200 195 191 191 219 195 149 178 144 7 307 310 337 302 307 204 197 213 226 238 226 224 242 251 254 228 253 260 243 256 269 276 281 285
189 189 191 190 190 185 193 191 188 186 173 176 174 175 174 175 178 175 157 142 150 157 157 152 157 162 160 161 155 160 164 147 134 163 159 175 172 181 190 209 201 197 196 214 182 197 170 173 203 145 205 281 278 269 265 67 208 206 194 228 268 256 262 264 287 286 266 268 273 261 266 271 276 276
185 189 187 191 190 191 189 192 176 167 165 169 170 167 170 161 144 144 142 151 160 155 155 154 157 157 160 158 156 159 162 168 164 170 173 165 162 190 198 200 199 195 204 196 177 190 195 178 198 198 187 220 256 264 291 252 137 252 241 209 252 282 274 295 291 287 287 277 269 273 273 269 264 269
182 183 186 185 189 187 187 186 172 172 170 163 164 167 162 156 146 146 160 164 160 153 154 154 162 164 162 168 167 163 162 165 174 182 176 187 187 193 199 193 198 193 163 203 195 191 190 202 209 202 199 201 217 235 239 287 278 225 247 271 288 291 280 279 279 280 278 280 280 272 256 253 267 275
184 187 187 182 187 184 182 169 162 167 167 172 167 166 162 163 161 160 162 165 164 164 161 163 159 158 166 167 165 164 168 176 179 180 184 188 194 194 194 192 193 183 175 190 188 209 204 219 212 205 210 217 231 247 269 270 279 280 263 253 255 258 267 263 261 266 273 271 275 285 288 292 283 283
156 181 187 185 184 180 173 174 168 163 166 164 159 163 163 162 163 172 171 171 164 163 166 168 169 172 172 171 172 170 176 182 174 179 180 185 190 193 190 181 189 187 187 220 199 206 218 222 215 218 207 220 258 342 330 285 275 281 275 252 244 264 268 270 266 267 278 287 288 280 282 284 290 297
173 190 188 173 181 184 172 171 161 161 163 163 161 164 160 168 174 175 173 177 172 175 170 171 171 173 174 174 173 174 177 178 175 181 183 182 185 191 189 188 199 198 192 214 212 218 233 202 209 213 220 205 201 225 248 254 271 281 288 288 273 266 272 275 274 271 269 272 281 285 284 287 283 276
177 186 187 174 162 170 165 167 167 164 165 164 164 166 163 168 165 172 173 177 176 176 178 176 175 174 176 171 174 178 173 177 176 181 181 184 184 189 196 204 205 203 206 219 207 177 207 215 170 193 210 194 217 217 252 261 268 277 290 291 287 284 264 262 269 273 275 275 275 275 275 280 293 288
174 175 166 160 160 165 161 167 166 168 166 171 170 168 170 169 175 181 176 176 176 181 181 174 174 171 172 171 169 173 181 176 178 175 183 186 191 191 196 201 203 207 207 210 211 225 213 215 221 200 201 225 207 217 252 265 272 270 276 283 290 292 288 277 242 264 271 272 274 276 274 272 270 271
166 168 171 176 176 171 169 170 166 169 170 168 168 176 176 177 179 177 177 178 178 173 170 172 169 172 167 164 164 176 186 172 170 178 173 177 183 191 191 191 198 201 209 204 182 234 219 211 239 205 211 225 208 226 250 254 267 282 279 281 284 285 285 297 294 287 276 270 263 270 275 278 280 280